sat.trackr.live / text

‹ back to catalog

GAOFEN-1

NORAD 39150 · 2013-018A

PAYLOAD ACTIVE UNKNOWN

§ Identity

Operator
Country
PRC
Launch date
2013-04-26
Launch site
JSC
Launch vehicle
Mass (kg)
RCS (m²)
2.59

Purposes: earth_obs

External: N2YO · Heavens-Above · Gunter

§ Orbital elements

Epoch: 2026-09-04T05:10:14.505024Z

Period
97.53 min
Inclination
97.9029°
Eccentricity
0.0017567
Mean motion
14.76528563 rev/d
Perigee alt
628.0 km
Apogee alt
652.6 km
Semi-major
7,018.4 km
B*
1.3548e-5
RAAN
317.6503°
Arg perigee
16.2260°
Mean anomaly
343.9509°
Rev number
71,990

§ Raw data

GAOFEN-11 39150U 13018A   26247.21544566  .00000044  00000+0  13548-4 0  99972 39150  97.9029 317.6503 0017567  16.2260 343.9509 14.76528563719900

JSON: /api/v1/satellites/39150 · /tle

For live sub-satellite position, see the globe view (requires WebGL).

§ Visibility from observer

Set your observer location to see the next 7 days of passes ≥ 10°. The values pass through the URL so the page stays shareable.

No JS? Fill the form by hand. The geolocation button needs JavaScript.

§ Radio — SatNOGS DB

ModeDescriptionDownlinkUplink
BPSK S-band telemetry 2.235 GHz

1 transmitter · refreshed weekly from db.satnogs.org